I3JUK-11 Weather Reports


time (UTC)temp
C
wind
direction
speed
KPH
gust
KPH
rain 1hr
cm
rain 24hr
cm
rain mn
cm
humidity
%
barometer
mb
20260906101221 34 0 0.0 6.4 0.00 0.00 0.00 39 1021.3
20260906100322 33 23 3.2 9.7 0.00 0.00 0.00 38 1021.2
20260906095421 33 24 3.2 6.4 0.00 0.00 0.00 40 1021.3
20260906094521 32 0 0.0 9.7 0.00 0.00 0.00 43 1021.3
20260906093622 31 29 4.8 11.3 0.00 0.00 0.00 43 1021.4
20260906092721 31 26 6.4 9.7 0.00 0.00 0.00 45 1021.5
20260906091821 30 24 6.4 9.7 0.00 0.00 0.00 48 1021.6
20260906091132 28 24 3.2 8.0 0.00 0.00 0.00 51 1021.5
20260906090021 27 22 3.2 8.0 0.00 0.00 0.00 52 1021.6
20260906085121 27 29 6.4 8.0 0.00 0.00 0.00 57 1021.6
20260906084434 27 29 6.4 12.9 0.00 0.00 0.00 56 1021.4
20260906083531 27 27 6.4 12.9 0.00 0.00 0.00 57 1021.5
20260906082634 26 24 6.4 12.9 0.00 0.00 0.00 57 1021.5
20260906081521 26 28 6.4 12.9 0.00 0.00 0.00 58 1021.3
20260906080621 26 24 6.4 16.1 0.00 0.00 0.00 57 1021.4
20260906075721 26 26 9.7 16.1 0.00 0.00 0.00 57 1021.4
20260906074821 26 27 4.8 12.9 0.00 0.00 0.00 57 1021.3
20260906073921 25 26 6.4 14.5 0.00 0.00 0.00 60 1021.3
20260906073233 25 27 4.8 14.5 0.00 0.00 0.00 61 1021.2
20260906072335 25 28 8.0 14.5 0.00 0.00 0.00 61 1021.1
20260906071221 25 22 6.4 9.7 0.00 0.00 0.00 63 1021.1
20260906070535 25 22 4.8 6.4 0.00 0.00 0.00 65 1021.0
20260906065421 24 24 4.8 12.9 0.00 0.00 0.00 64 1020.9
20260906064521 24 26 8.0 11.3 0.00 0.00 0.00 66 1020.8
20260906063621 23 22 6.4 11.3 0.00 0.00 0.00 68 1020.6
20260906062721 23 27 4.8 8.0 0.00 0.00 0.00 70 1020.6
20260906061821 23 22 3.2 8.0 0.00 0.00 0.00 71 1020.6
20260906060921 23 35 3.2 8.0 0.00 0.00 0.00 72 1020.5
20260906060021 22 32 3.2 4.8 0.00 0.00 0.00 74 1020.4
20260906055121 22 28 3.2 6.4 0.00 0.00 0.00 74 1020.4
20260906054221 22 23 1.6 4.8 0.00 0.00 0.00 78 1020.2
20260906053322 22 25 1.6 4.8 0.00 0.00 0.00 78 1020.0
20260906052421 21 22 1.6 4.8 0.00 0.00 0.00 79 1020.0
20260906051733 21 22 3.2 4.8 0.00 0.00 0.00 79 1019.9
20260906050622 21 26 3.2 4.8 0.00 0.00 0.00 79 1019.8
20260906045721 21 22 1.6 3.2 0.00 0.00 0.00 78 1019.7
20260906044821 21 0 0.0 3.2 0.00 0.00 0.00 77 1019.7
20260906044132 21 0 0.0 3.2 0.00 0.00 0.00 77 1019.7
20260906043021 22 26 1.6 3.2 0.00 0.00 0.00 77 1019.5
20260906042121 22 27 3.2 3.2 0.00 0.00 0.00 77 1019.4
20260906041222 22 24 3.2 6.4 0.00 0.00 0.00 76 1019.3
20260906040321 22 24 3.2 6.4 0.00 0.00 0.00 78 1019.2
20260906035422 22 22 3.2 6.4 0.00 0.00 0.00 79 1019.1
20260906034521 22 22 3.2 4.8 0.00 0.00 0.00 80 1019.0
20260906033621 21 23 3.2 4.8 0.00 0.00 0.00 80 1018.9
20260906032721 21 22 1.6 3.2 0.00 0.00 0.00 81 1018.8
20260906031821 22 24 1.6 3.2 0.00 0.00 0.00 81 1018.9
20260906031131 22 24 1.6 3.2 0.00 0.00 0.00 81 1018.8
20260906030021 22 22 1.6 3.2 0.00 0.00 0.00 81 1018.8
20260906025335 22 0 0.0 3.2 0.00 0.00 0.00 82 1019.0
20260906024221 22 22 1.6 3.2 0.00 0.00 0.00 82 1019.0
20260906023535 22 22 1.6 3.2 0.00 0.00 0.00 83 1019.0
20260906022421 22 24 1.6 3.2 0.00 0.00 0.00 85 1019.0
20260906021522 22 22 1.6 3.2 0.00 0.00 0.00 86 1018.8
20260906020621 22 22 1.6 3.2 0.00 0.00 0.00 86 1018.7
20260906015721 22 0 0.0 3.2 0.00 0.00 0.00 86 1018.7
20260906015032 22 0 0.0 3.2 0.00 0.00 0.00 88 1018.7
20260906013921 22 0 0.0 3.2 0.00 0.00 0.00 89 1018.7
20260906013021 22 22 1.6 3.2 0.00 0.00 0.00 91 1018.7
20260906012121 22 22 1.6 3.2 0.00 0.00 0.00 92 1018.5
20260906011221 23 0 0.0 3.2 0.00 0.00 0.00 94 1018.5
20260906010321 23 24 1.6 3.2 0.00 0.00 0.00 95 1018.5
20260906005422 23 23 1.6 4.8 0.00 0.00 0.00 96 1018.4
20260906004521 23 22 3.2 4.8 0.00 0.00 0.00 96 1018.6
20260906003621 23 22 1.6 3.2 0.00 0.00 0.00 96 1018.6
20260906002721 23 0 0.0 3.2 0.00 0.00 0.00 96 1018.6
20260906001821 23 22 1.6 3.2 0.00 0.00 0.00 97 1018.8
20260906000923 23 0 0.0 3.2 0.00 0.00 0.00 98 1018.7
20260906000021 23 0 0.0 1.6 0.00 0.00 0.00 99 1018.6
20260905235122 24 0 0.0 3.2 0.00 0.00 0.00 99 1018.7
20260905234221 24 0 0.0 1.6 0.00 0.00 0.00 99 1018.5
20260905233321 23 0 0.0 3.2 0.00 0.00 0.00 99 1018.5
20260905232421 23 22 1.6 3.2 0.00 0.00 0.00 99 1018.5
20260905231521 23 22 1.6 3.2 0.00 0.00 0.00 99 1018.4
20260905230622 23 22 1.6 3.2 0.00 0.00 0.00 99 1018.2
20260905225722 23 22 1.6 3.2 0.00 0.00 0.00 98 1018.2
20260905224821 23 0 0.0 1.6 0.00 0.00 0.00 97 1018.1
20260905223922 23 0 0.0 3.2 0.00 0.00 0.00 97 1018.0
20260905223233 23 22 1.6 3.2 0.00 0.00 0.00 96 1018.0
20260905222121 24 22 1.6 3.2 0.00 0.00 0.00 96 1018.0
20260905221221 24 0 0.0 1.6 0.00 0.00 0.00 96 1017.8
20260905220321 24 0 0.0 1.6 0.00 0.00 0.00 96 1017.8
20260905215421 24 0 0.0 1.6 0.00 0.00 0.00 95 1017.8
20260905214521 24 0 0.0 0.0 0.00 0.00 0.00 95 1017.7
20260905213621 24 0 0.0 0.0 0.00 0.00 0.00 94 1017.7
20260905212721 24 0 0.0 1.6 0.00 0.00 0.00 93 1017.5
20260905211822 24 0 0.0 1.6 0.00 0.00 0.00 92 1017.4
20260905211135 24 0 0.0 1.6 0.00 0.00 0.00 92 1017.3
20260905210021 24 0 0.0 1.6 0.00 0.00 0.00 91 1017.4
20260905205122 25 0 0.0 3.2 0.00 0.00 0.00 91 1017.4
20260905204431 25 0 0.0 3.2 0.00 0.00 0.00 90 1017.2
20260905203321 25 0 0.0 3.2 0.00 0.00 0.00 90 1017.3
20260905202421 25 0 0.0 1.6 0.00 0.00 0.00 89 1017.2
20260905201521 25 0 0.0 1.6 0.00 0.00 0.00 87 1017.3
20260905200623 25 0 0.0 1.6 0.00 0.00 0.00 87 1017.2
20260905195721 25 0 0.0 1.6 0.00 0.00 0.00 87 1017.1
20260905194821 25 0 0.0 3.2 0.00 0.00 0.00 86 1017.0
20260905193921 25 145 1.6 3.2 0.00 0.00 0.00 86 1016.8
20260905193021 26 0 0.0 1.6 0.00 0.00 0.00 83 1016.6
20260905192121 26 0 0.0 1.6 0.00 0.00 0.00 82 1016.5
20260905191435 26 0 0.0 1.6 0.00 0.00 0.00 82 1016.5
20260905190321 26 0 0.0 3.2 0.00 0.00 0.00 81 1016.3
20260905185421 26 0 0.0 1.6 0.00 0.00 0.00 81 1016.2
20260905184521 26 0 0.0 3.2 0.00 0.00 0.00 80 1016.2
20260905183621 26 22 1.6 3.2 0.00 0.00 0.00 80 1015.9
20260905182721 26 0 0.0 1.6 0.00 0.00 0.00 79 1015.7
20260905181821 26 0 0.0 0.0 0.00 0.00 0.00 77 1015.5
20260905181131 27 0 0.0 0.0 0.00 0.00 0.00 76 1015.4
20260905180021 27 0 0.0 1.6 0.00 0.00 0.00 72 1015.4
20260905175122 27 0 0.0 1.6 0.00 0.00 0.00 71 1015.3
20260905174221 28 0 0.0 1.6 0.00 0.00 0.00 71 1015.1
20260905173322 28 0 0.0 1.6 0.00 0.00 0.00 69 1015.1
20260905172421 29 0 0.0 0.0 0.00 0.00 0.00 67 1014.9
20260905171521 30 0 0.0 1.6 0.00 0.00 0.00 65 1014.8
20260905170621 31 0 0.0 1.6 0.00 0.00 0.00 63 1014.8
20260905165722 31 0 0.0 1.6 0.00 0.00 0.00 61 1014.8
20260905164821 33 0 0.0 1.6 0.00 0.00 0.00 53 1014.7
20260905163921 34 0 0.0 3.2 0.00 0.00 0.00 51 1014.5
20260905163021 35 0 0.0 3.2 0.00 0.00 0.00 45 1014.5
20260905162121 35 0 0.0 3.2 0.00 0.00 0.00 42 1014.4
20260905161432 35 22 1.6 4.8 0.00 0.00 0.00 39 1014.5
20260905160322 38 0 0.0 1.6 0.00 0.00 0.00 33 1014.4
20260905155421 38 0 0.0 6.4 0.00 0.00 0.00 34 1014.4
20260905154522 38 0 0.0 3.2 0.00 0.00 0.00 32 1014.3
20260905153621 39 0 0.0 3.2 0.00 0.00 0.00 32 1014.2
20260905152721 39 0 0.0 3.2 0.00 0.00 0.00 31 1014.2
20260905151821 40 0 0.0 3.2 0.00 0.00 0.00 30 1014.2
20260905151133 39 0 0.0 3.2 0.00 0.00 0.00 31 1014.2
20260905150021 38 0 0.0 4.8 0.00 0.00 0.00 30 1014.2
20260905145333 40 147 1.6 4.8 0.00 0.00 0.00 31 1014.2
20260905144221 39 0 0.0 6.4 0.00 0.00 0.00 30 1014.2
20260905143321 39 0 0.0 6.4 0.00 0.00 0.00 31 1014.3
20260905142421 39 79 4.8 6.4 0.00 0.00 0.00 30 1014.3
20260905141521 39 39 3.2 3.2 0.00 0.00 0.00 30 1014.3
20260905140621 38 143 1.6 3.2 0.00 0.00 0.00 33 1014.4
20260905135721 37 0 0.0 9.7 0.00 0.00 0.00 34 1014.4
20260905134822 37 0 0.0 6.4 0.00 0.00 0.00 38 1014.5
20260905133921 37 0 0.0 4.8 0.00 0.00 0.00 33 1014.6
20260905133021 37 37 3.2 4.8 0.00 0.00 0.00 34 1014.8
20260905132121 38 42 3.2 6.4 0.00 0.00 0.00 31 1014.7
20260905131221 38 0 0.0 4.8 0.00 0.00 0.00 36 1014.8
20260905130321 37 43 1.6 4.8 0.00 0.00 0.00 35 1014.8
20260905125422 36 33 3.2 6.4 0.00 0.00 0.00 39 1015.0
20260905124521 36 29 3.2 9.7 0.00 0.00 0.00 38 1015.1
20260905123621 36 0 0.0 6.4 0.00 0.00 0.00 40 1015.3
20260905122721 36 26 1.6 6.4 0.00 0.00 0.00 40 1015.2
20260905121821 35 30 1.6 12.9 0.00 0.00 0.00 41 1015.4
20260905120921 35 41 3.2 6.4 0.00 0.00 0.00 38 1015.5
20260905120021 35 49 3.2 12.9 0.00 0.00 0.00 38 1015.4
20260905115121 36 55 3.2 6.4 0.00 0.00 0.00 40 1015.6
20260905114221 36 58 4.8 9.7 0.00 0.00 0.00 38 1015.6
20260905113535 36 31 3.2 9.7 0.00 0.00 0.00 37 1015.7
20260905112421 35 38 1.6 6.4 0.00 0.00 0.00 39 1015.7
20260905111521 36 102 1.6 9.7 0.00 0.00 0.00 41 1015.6
20260905110622 36 49 4.8 6.4 0.00 0.00 0.00 40 1015.7
20260905105721 35 0 0.0 4.8 0.00 0.00 0.00 43 1015.7
20260905104821 35 0 0.0 4.8 0.00 0.00 0.00 44 1015.9
20260905104134 34 28 1.6 11.3 0.00 0.00 0.00 43 1015.9
20260905103022 33 32 1.6 3.2 0.00 0.00 0.00 50 1015.8
20260905102121 32 0 0.0 4.8 0.00 0.00 0.00 52 1015.7